EW7358 Weather Reports


Display with metric or nautical units.
time (UTC)temp
F
wind
direction
speed
MPH
gust
MPH
rain 1hr
in
rain 24hr
in
rain mn
in
humidity
%
barometer
mb
20260504184913 79 296 9.0 22.0 0.00 0.00 0.00 30 1000.5
20260504184320 79 294 6.0 11.0 0.00 0.00 0.00 31 1000.5
20260504183358 79 270 5.0 9.0 0.00 0.00 0.00 35 1000.4
20260504182658 79 278 3.0 11.0 0.00 0.00 0.00 36 1000.5
20260504181408 78 214 2.0 16.0 0.00 0.00 0.00 38 1000.6
20260504180708 78 251 7.0 16.0 0.00 0.00 0.00 35 1000.7
20260504175751 78 242 6.0 13.0 0.00 0.00 0.00 34 1000.8
20260504175049 78 199 5.0 9.0 0.00 0.00 0.00 37 1000.8
20260504173911 78 182 3.0 9.0 0.00 0.00 0.00 40 1000.9
20260504173316 78 215 4.0 12.0 0.00 0.00 0.00 41 1001.0
20260504172833 77 165 3.0 12.0 0.00 0.00 0.00 40 1001.0
20260504172245 77 205 4.0 10.0 0.00 0.00 0.00 39 1001.1
20260504171653 77 228 4.0 9.0 0.00 0.00 0.00 41 1001.0
20260504170954 76 225 4.0 9.0 0.00 0.00 0.00 42 1001.0
20260504170625 76 242 2.0 7.0 0.00 0.00 0.00 42 1001.0
20260504150810 69 250 2.0 6.0 0.00 0.00 0.00 50 1001.6
20260504141012 64 192 3.0 8.0 0.00 0.00 0.00 53 1002.0
20260504140510 63 197 2.0 7.0 0.00 0.00 0.00 54 1001.9
20260504130504 58 234 0.0 9.0 0.00 0.00 0.00 58 1002.4
20260504110504 49 221 0.0 0.0 0.00 0.00 0.00 67 1002.7
20260504100504 49 242 0.0 1.0 0.00 0.00 0.00 66 1003.3
20260504081536 51 251 0.0 1.0 0.00 0.00 0.00 59 1004.4
20260504081008 51 251 0.0 1.0 0.00 0.00 0.00 59 1004.4
20260504080508 51 251 0.0 0.0 0.00 0.00 0.00 59 1004.4
20260504050508 54 261 0.0 0.0 0.00 0.00 0.00 48 1006.6
20260504050020 54 261 0.0 0.0 0.00 0.00 0.00 47 1006.6
20260504045509 54 261 0.0 1.0 0.00 0.00 0.00 46 1006.6
20260504045006 54 261 0.0 1.0 0.00 0.00 0.00 46 1006.7
20260504044523 55 261 0.0 0.0 0.00 0.00 0.00 44 1006.7
20260504044003 55 261 0.0 0.0 0.00 0.00 0.00 44 1006.8
20260504043518 55 261 0.0 0.0 0.00 0.00 0.00 45 1006.8
20260504043005 55 261 0.0 2.0 0.00 0.00 0.00 43 1006.8
20260504042504 56 261 0.0 2.0 0.00 0.00 0.00 41 1006.9
20260504042009 56 261 0.0 0.0 0.00 0.00 0.00 41 1006.9
20260504041006 57 261 0.0 1.0 0.00 0.00 0.00 40 1007.0
20260504040508 57 261 0.0 2.0 0.00 0.00 0.00 40 1007.1
20260504040016 57 261 0.0 2.0 0.00 0.00 0.00 40 1007.2
20260504035510 57 261 0.0 2.0 0.00 0.00 0.00 39 1007.3
20260504035009 58 261 0.0 2.0 0.00 0.00 0.00 39 1007.3
20260504034517 58 261 0.0 2.0 0.00 0.00 0.00 38 1007.4
20260504033506 58 261 0.0 2.0 0.00 0.00 0.00 37 1007.5
20260504033023 59 261 0.0 2.0 0.00 0.00 0.00 37 1007.6
20260504032504 59 261 0.0 2.0 0.00 0.00 0.00 36 1007.7
20260504032006 59 261 0.0 2.0 0.00 0.00 0.00 36 1007.7
20260504031506 59 261 0.0 2.0 0.00 0.00 0.00 36 1007.7
20260504031004 59 261 0.0 2.0 0.00 0.00 0.00 35 1007.7
20260504030505 60 261 0.0 2.0 0.00 0.00 0.00 34 1007.7
20260504030021 60 261 0.0 2.0 0.00 0.00 0.00 34 1007.7
20260504025508 61 261 0.0 2.0 0.00 0.00 0.00 34 1007.7
20260504025007 61 261 0.0 2.0 0.00 0.00 0.00 33 1007.7
20260504024517 61 261 0.0 2.0 0.00 0.00 0.00 33 1007.7
20260504024007 61 261 0.0 2.0 0.00 0.00 0.00 33 1007.7
20260504023508 62 261 0.0 2.0 0.00 0.00 0.00 32 1007.7
20260504023021 62 261 0.0 2.0 0.00 0.00 0.00 32 1007.7
20260504022507 62 261 0.0 2.0 0.00 0.00 0.00 32 1007.7
20260504022011 63 261 0.0 2.0 0.00 0.00 0.00 31 1007.7
20260504021526 63 261 0.0 2.0 0.00 0.00 0.00 31 1007.7
20260504021004 63 268 0.0 2.0 0.00 0.00 0.00 31 1007.6
20260504020505 64 268 0.0 2.0 0.00 0.00 0.00 30 1007.6
20260504020012 64 268 0.0 2.0 0.00 0.00 0.00 30 1007.5
20260504015506 64 269 0.0 2.0 0.00 0.00 0.00 29 1007.5
20260504015011 65 269 0.0 2.0 0.00 0.00 0.00 28 1007.5
20260504014519 66 269 0.0 2.0 0.00 0.00 0.00 28 1007.5
20260504014008 66 269 0.0 2.0 0.00 0.00 0.00 28 1007.5
20260504013508 67 269 0.0 2.0 0.00 0.00 0.00 27 1007.5
20260504013034 67 269 0.0 2.0 0.00 0.00 0.00 27 1007.6
20260504012508 68 269 0.0 2.0 0.00 0.00 0.00 27 1007.5
20260504012007 68 273 0.0 2.0 0.00 0.00 0.00 26 1007.5
20260504011523 69 273 0.0 2.0 0.00 0.00 0.00 26 1007.5
20260504011008 69 277 0.0 4.0 0.00 0.00 0.00 26 1007.5
20260504010510 70 277 1.0 4.0 0.00 0.00 0.00 25 1007.5
20260504010026 70 282 1.0 4.0 0.00 0.00 0.00 25 1007.5
20260504005510 71 288 2.0 6.0 0.00 0.00 0.00 24 1007.5
20260504005011 71 286 2.0 6.0 0.00 0.00 0.00 24 1007.5
20260504004510 72 260 2.0 7.0 0.00 0.00 0.00 23 1007.5
20260504004004 72 263 2.0 7.0 0.00 0.00 0.00 23 1007.5
20260504003509 72 292 2.0 6.0 0.00 0.00 0.00 23 1007.5
20260504003016 73 262 3.0 6.0 0.00 0.00 0.00 23 1007.6
20260504002515 73 296 3.0 6.0 0.00 0.00 0.00 22 1007.5
20260504002009 73 283 1.0 6.0 0.00 0.00 0.00 23 1007.5
20260504001524 73 286 2.0 8.0 0.00 0.00 0.00 23 1007.6
20260504001008 73 297 3.0 8.0 0.00 0.00 0.00 22 1007.6
20260504000510 74 278 4.0 9.0 0.00 0.00 0.00 21 1007.6
20260504000028 74 292 3.0 9.0 0.00 0.00 0.00 22 1007.5
20260503235503 74 296 1.0 8.0 0.00 0.00 0.00 22 1007.5
20260503235004 74 286 4.0 9.0 0.00 0.00 0.00 20 1007.6
20260503234527 74 256 3.0 10.0 0.00 0.00 0.00 21 1007.6
20260503234006 74 264 4.0 10.0 0.00 0.00 0.00 22 1007.6
20260503233507 74 311 5.0 14.0 0.00 0.00 0.00 22 1007.6
20260503233020 74 255 6.0 14.0 0.00 0.00 0.00 22 1007.6
20260503232502 74 289 5.0 9.0 0.00 0.00 0.00 21 1007.6
20260503232004 74 273 6.0 9.0 0.00 0.00 0.00 21 1007.6
20260503231504 74 233 4.0 10.0 0.00 0.00 0.00 23 1007.7
20260503231004 74 292 6.0 10.0 0.00 0.00 0.00 22 1007.6
20260503230514 74 282 6.0 13.0 0.00 0.00 0.00 22 1007.7
20260503230004 74 296 7.0 13.0 0.00 0.00 0.00 23 1007.7
20260503225503 74 318 6.0 11.0 0.00 0.00 0.00 23 1007.8
20260503225004 73 281 5.0 13.0 0.00 0.00 0.00 23 1007.8
20260503224509 73 297 8.0 13.0 0.00 0.00 0.00 22 1007.9
20260503224004 73 309 5.0 11.0 0.00 0.00 0.00 24 1007.8
20260503223507 73 291 5.0 16.0 0.00 0.00 0.00 23 1007.8
20260503223013 73 290 5.0 16.0 0.00 0.00 0.00 23 1007.8
20260503222504 73 294 7.0 13.0 0.00 0.00 0.00 22 1007.8
20260503222007 73 300 4.0 14.0 0.00 0.00 0.00 22 1007.8
20260503221518 74 272 7.0 14.0 0.00 0.00 0.00 23 1007.8
20260503221011 74 315 6.0 14.0 0.00 0.00 0.00 22 1007.8
20260503220503 73 276 5.0 15.0 0.00 0.00 0.00 22 1007.9
20260503220016 73 296 7.0 15.0 0.00 0.00 0.00 23 1007.9
20260503215503 74 290 5.0 10.0 0.00 0.00 0.00 23 1007.9
20260503215003 74 312 3.0 10.0 0.00 0.00 0.00 24 1007.9
20260503214503 74 321 4.0 10.0 0.00 0.00 0.00 26 1007.9
20260503214004 74 290 4.0 10.0 0.00 0.00 0.00 25 1007.9
20260503213505 74 305 4.0 11.0 0.00 0.00 0.00 25 1007.8
20260503213010 73 302 4.0 11.0 0.00 0.00 0.00 25 1007.8
20260503212507 73 307 4.0 12.0 0.00 0.00 0.00 25 1007.8
20260503212007 73 288 6.0 12.0 0.00 0.00 0.00 24 1007.8
20260503211514 73 297 4.0 14.0 0.00 0.00 0.00 24 1007.8
20260503211007 73 313 5.0 14.0 0.00 0.00 0.00 25 1007.8
20260503210507 74 293 6.0 12.0 0.00 0.00 0.00 25 1007.9
20260503210019 74 311 5.0 18.0 0.00 0.00 0.00 24 1008.0
20260503205503 74 314 10.0 20.0 0.00 0.00 0.00 22 1008.0
20260503205003 74 265 9.0 20.0 0.00 0.00 0.00 23 1008.1
20260503204504 74 288 6.0 15.0 0.00 0.00 0.00 25 1008.1
20260503204004 74 305 7.0 15.0 0.00 0.00 0.00 26 1008.1
20260503203506 74 289 7.0 14.0 0.00 0.00 0.00 26 1008.1
20260503203022 74 324 5.0 15.0 0.00 0.00 0.00 26 1008.3
20260503202504 74 335 6.0 15.0 0.00 0.00 0.00 25 1008.2
20260503202006 74 269 5.0 10.0 0.00 0.00 0.00 27 1008.3
20260503201514 74 306 5.0 11.0 0.00 0.00 0.00 27 1008.3
20260503201009 74 295 5.0 12.0 0.00 0.00 0.00 26 1008.3
20260503200508 74 269 6.0 17.0 0.00 0.00 0.00 28 1008.4
20260503200020 73 301 8.0 17.0 0.00 0.00 0.00 26 1008.4
20260503195509 73 299 5.0 12.0 0.00 0.00 0.00 25 1008.3
20260503195009 74 282 5.0 15.0 0.00 0.00 0.00 28 1008.4
20260503194536 73 273 9.0 21.0 0.00 0.00 0.00 26 1008.4
20260503194006 73 288 6.0 21.0 0.00 0.00 0.00 27 1008.5
20260503193505 73 307 11.0 18.0 0.00 0.00 0.00 27 1008.3
20260503193006 73 266 8.0 17.0 0.00 0.00 0.00 29 1008.5
20260503192504 73 305 7.0 13.0 0.00 0.00 0.00 28 1008.5
20260503192007 73 271 5.0 17.0 0.00 0.00 0.00 30 1008.5
20260503191512 73 307 6.0 17.0 0.00 0.00 0.00 28 1008.5
20260503191008 73 275 9.0 13.0 0.00 0.00 0.00 27 1008.5
20260503190508 73 283 7.0 13.0 0.00 0.00 0.00 28 1008.6
20260503190017 73 285 5.0 16.0 0.00 0.00 0.00 30 1008.4
20260503185511 72 355 5.0 16.0 0.00 0.00 0.00 27 1008.5